Regional Weather Roundup
Issued by NWS Green Bay, WI

Home | Current Version | Previous Version | Text Only | Print | Product List | Glossary On
Versions: 1 2 3 4 5 6 7 8 9 10 11 12 13 14 15 16 17 18 19 20 21 22 23 24 25 26 27 28 29 30 31 32 33 34 35 36 37 38 39 40 41 42 43 44 45 46 47 48 49 50
000
ASUS43 KGRB 251359
RWRGRB

NORTH-CENTRAL AND NORTHEAST WISCONSIN REGIONAL WEATHER ROUNDUP
NATIONAL WEATHER SERVICE GREEN BAY WI
900 AM CDT SAT OCT 25 2014

WIZ005-009-010>012-018-019-251500-
NORTH CENTRAL WISCONSIN

CITY           SKY/WX    TMP DP  RH WIND       PRES   REMARKS
IRONWOOD       SUNNY     48  36  61 W12G21    29.83R
MANITOWISH WTR NOT AVBL
ARBOR VITAE    NOT AVBL
EAGLE RIVER    NOT AVBL
LAND O LAKES   NOT AVBL
RHINELANDER    SUNNY     49  35  58 W17G25    29.85R
PHILLIPS       NOT AVBL
ANTIGO         NOT AVBL
TOMAHAWK       NOT AVBL
MERRILL        NOT AVBL
$$

WIZ013-073-251500-
NORTHEAST WISCONSIN

CITY           SKY/WX    TMP DP  RH WIND       PRES   REMARKS
IRON MOUNTAIN  SUNNY     53  35  50 NW16G29   29.75R
MARINETTE      SUNNY     54  45  71 W6        29.78S
$$

WIZ017-030-035>037-045-251500-
CENTRAL WISCONSIN

CITY           SKY/WX    TMP DP  RH WIND       PRES   REMARKS
MEDFORD        NOT AVBL
WAUSAU         SUNNY     50  40  68 NW14      29.87R
MOSINEE        NOT AVBL
MARSHFIELD     SUNNY     51  39  63 NW15      29.91R
WISC RAPIDS    SUNNY     52  41  66 W12       29.93R
STEVENS POINT  NOT AVBL
WAUPACA        NOT AVBL
SHAWANO        NOT AVBL
CLINTONVILLE   NOT AVBL
$$

WIZ038-039-048-051-251500-
FOX VALLEY

CITY           SKY/WX    TMP DP  RH WIND       PRES   REMARKS
NWS GREEN BAY  SUNNY     55  47  74 W10       29.84S
APPLETON       NOT AVBL
OSHKOSH        SUNNY     54  48  80 W8        29.88R
FOND DU LAC    SUNNY     55  47  74 W10       29.90R
$$

WIZ022-050-052-251500-
EAST CENTRAL WISCONSIN

CITY           SKY/WX    TMP DP  RH WIND       PRES   REMARKS
STURGEON BAY   SUNNY     54  46  76 W15       29.80S
MANITOWOC      NOT AVBL
SHEBOYGAN      SUNNY     57  48  72 W10       29.87R
$$

LMZ563-521-522-541>543-251500-
LAKESHORE

STATION/POSITION TIME  TEMP    WIND        PRES    VSBY  WAVE
                       AIR SEA DIR/SP/G                  HT/PER
                 (UTC) (F)     (DEG/KT/KT) (MB)    (MI)  (FT/S)
SHEBOYGAN LKSHOR 1300   56 51  270/ 11/ 13 1011.2R
KEWAUNEE LKSHORE 1300   55     280/  8/ 12 1009.0R
ALGOMA MARINA    1300          270/  8/ 12   N/A
NORTHPORT PIER   1300   55     250/  5/ 11 1007.8S
N MID LAKE BUOY  1300   54 51  260/ 17/ 19 1006.6R         3/ 5
SISTER BAY LKSHO 1300          270/ 13/ 14   N/A
CHAMBERS ISLAND  1300   55     220/  7/ 15 1008.1S
MENOMINEE LKSHOR 1300   53     240/  9/ 11 1009.1F
$$



USA.gov is the U.S. government's official web portal to all federal, state and local government web resources and services.